Location: Zlin
(49.2333°N, 17.6667°E)
Time: 16:28:29
(UTC+02:00)

ISS - Visible Passes

Search period start: 26 September 2018 00:00
Search period end: 06 October 2018 00:00
Orbit: 403 x 408 km, 51.6° (Epoch: 26 September)

Date Brightness Start Highest point End Pass type
(mag) Time Alt. Az. Time Alt. Az. Time Alt. Az.
26 Sep -3.9 20:12:02 10° WSW 20:15:20 85° SSE 20:16:23 41° ENE visible
26 Sep -0.5 21:48:45 10° W 21:49:04 12° WNW 21:49:04 12° WNW visible
27 Sep -3.7 19:20:13 10° SW 19:23:27 58° SSE 19:26:35 11° ENE visible
27 Sep -2.6 20:56:46 10° W 20:59:15 43° WNW 20:59:15 43° WNW visible
28 Sep -3.6 20:04:45 10° W 20:08:03 67° NNW 20:09:23 32° ENE visible
28 Sep -0.6 21:41:31 10° WNW 21:42:03 14° WNW 21:42:03 14° WNW visible
29 Sep -3.8 19:12:47 10° WSW 19:16:05 85° NNW 19:19:24 10° ENE visible
29 Sep -2.7 20:49:32 10° WNW 20:52:07 43° NW 20:52:07 43° NW visible
30 Sep -3.3 19:57:30 10° W 20:00:45 55° N 20:02:08 30° ENE visible
30 Sep -0.6 21:34:10 10° WNW 21:34:48 15° WNW 21:34:48 15° WNW visible
01 Oct -3.5 19:05:27 10° W 19:08:44 62° N 19:12:00 10° ENE visible
01 Oct -2.9 20:42:12 10° WNW 20:44:47 47° NW 20:44:47 47° NW visible
02 Oct -3.4 19:50:11 10° WNW 19:53:26 54° N 19:54:46 30° ENE visible
02 Oct -0.7 21:26:45 10° WNW 21:27:26 15° WNW 21:27:26 15° WNW visible
03 Oct -3.3 18:58:07 10° W 19:01:22 54° N 19:04:38 10° ENE visible
03 Oct -3.1 20:34:45 10° WNW 20:37:24 54° WNW 20:37:24 54° WNW visible
04 Oct -3.7 19:42:45 10° WNW 19:46:02 65° NNE 19:47:23 32° E visible
04 Oct -0.7 21:19:21 10° WNW 21:20:03 15° W 21:20:03 15° W visible
05 Oct -3.4 18:50:43 10° WNW 18:53:59 56° N 18:57:14 10° E visible
05 Oct -3.1 20:27:16 10° WNW 20:30:03 52° WSW 20:30:03 52° WSW visible
